EHI
0 0 0 0 0 0 0 0 0 0 0 0 0 0 0 0 0 0 0 0 0 0 0 0 0 0 0 0 0 0 0 0 0 0 0 0 0 0 0 0 0 0 0 0
0 0 0 0 0 0 0 0 0 0 0 0 0 0 0 0 0 0 0 0 0 0 0 0 0 0 0 0 0 0 0 0 0 0 0 0 0 0 0 0 0 0 0 0
0 0 0 0 0 0 0 0 0 0 0 0 0 0 0 0 0 0 0 0 0 0 0 0 0 0 0 0 0 0 0 0 0 0 0 0 0 0 0 0 0 0 0 0
0 0 0 0 0 0 0 0 0 0 0 0 0 0 0 0 0 0 0 0 0 0 0 0 0 0 0 0 0 0 0 0 0 0 0 0 0 0 0 0 0 0 0 0
0 0 0 0 0 0 0 0 0 0 0 0 0 0 0 0 0 0 0 0 0 0 0 0 0 0 0 0 0 0 0 0 0 0 0 0 0 0 0 0 0 0 0 0
0 0 0 0 0 0 0 0 0 0 0 0 0 0 0 0 0 0 0 0 0 0 0 0 0 0 0 0 0 0 0 0 0 0 0 0 0 0 0 0 0 0 0 0
0 0 0 0 0 0 0 0 0 0 0 0 0 0 0 0 0 0 0 0 0 0 0 0 0 0 0 0 0 0 0 0 0 0 0 0 0 0 0 0 0 0 0 0
0 0 0 0 0 0 0 0 0 0 0 0 0 0 0 0 0 0 0 0 0 0 0 0 0 0 0 0 0 0 0 0 0 0 0 0 0 0 0 0 0 0 0 0
0 0 0 0 0 0 0 0 0 0 0 0 0 0 0 0 0 0 0 0 0 0 0 0 0 0 0 0 0 0 0 0 0 0 0 0 0 0 0 0 0 0 0 0
0 0 0 0 0 0 0 0 0 0 0 0 0 0 0 0 0 0 0 0 0 0 0 0 0 0 0 0 0 0 0 0 0 0 0 0 0 0 0 0 0 0 0 0
0 0 0 0 0 0 0 0 0 0 0 0 0 0 0 0 0 0 0 0 0 0 0 0 0 0 0 0 0 0 0 0 0 0 0 0 0 0 0 0 0 0 0 0
0 0 0 0 0 0 0 0 0 0 0 0 0 0 0 0 0 0 0 0 0 0 0 0 0 0 0 0 0 0 0 0 0 0 0 0 0 0 0 0 0 0 0 0
0 0 0 0 0 0 0 0 0 0 0 0 0 0 0 0 0 0 0 0 0 0 0 0 0 0 0 0 0 0 0 0 0 0 0 0 0 0 0 0 0 0 0 0
0 0 0 0 0 0 0 0 0 0 0 0 0 0 0 0 0 0 0 0 0 0 0 0 0 0 0 0 0 0 0 0 0 0 0 0 0 0 0 0 0 0 0 0
0 0 0 0 0 0 0 0 0 0 0 0 0 0 0 0 0 0 0 0 0 0 0 0 0 0 0 0 0 0 0 0 0 0 0 0 0 0 0 0 0 0 0 0
0 0 0 0 0 0 0 0 0 0 0 0 0 0 0 0 0 0 0 0 0 0 0 0 0 0 0 0 0 0 0 0 0 0 0 0 0 0 0 0 0 0 0 0
0 0 0 0 0 0 0 0 0 0 0 0 0 0 0 0 0 0 0 0 0 0 0 0 0 0 0 0 0 0 0 0 0 0 0 0 0 0 0 0 0 0 0 0
0 0 0 0 0 0 0 0 0 0 0 0 0 0 0 0 0 0 0 0 0 0 0 0 0 0 0 0 0 0 0 0 0 0 0 0 0 0 0 0 0 0 0 0
0 0 0 0 0 0 0 0 0 0 0 0 0 0 0 0 0 0 0 0 0 0 0 0 0 0 0 0 0 0 0 0 0 0 0 0 0 0 0 0 0 0 0 0
0 0 0 0 0 0 0 0 0 0 0 0 0 0 0 0 0 0 0 0 0 0 0 0 0 0 0 0 0 0 0 0 0 0 0 0 0 0 0 0 0 0 0 0
0 0 0 0 0 0 0 0 0 0 0 0 0 0 0 0 0 0 0 0 0 0 0 0 0 0 0 0 0 0 0 0 0 0 0 0 0 0 0 0 0 0 0 0
0 0 0 0 0 0 0 0 0 0 0 0 0 0 0 0 0 0 0 0 0 0 0 0 0 0 0 0 0 0 0 0 0 0 0 0 0 0 0 0 0 0 0 0
0 0 0 0 0 0 0 0 0 0 0 0 0 0 0 0 0 0 0 0 0 0 0 0 0 0 0 0 0 0 0 0 0 0 0 0 0 0 0 0 0 0 0 0
0 0 0 0 0 0 0 0 0 0 0 0 0 0 0 0 0 0 0 0 0 0 0 0 0 0 0 0 0 0 0 0 0 0 0 0 0 0 0 0 0 0 0 0
0 0 0 0 0 0 0 0 0 0 0 0 0 0 0 0 0 0 0 0 0 0 0 0 0 0 0 0 0 0 0 0 0 0 0 0 0 0 0 0 0 0 0 0
0 0 0 0 0 0 0 0 0 0 0 0 0 0 0 0 0 0 0 0 0 0 0 0 0 0 0 0 0 0 0 0 0 0 0 0 0 0 0 0 0 0 0 0
Wind_Speed
3 4 1 3 3 3 3 3 1 1 1 2 2 2 2 3 4 5 4 4 5 5 3 3 4 4 4 4 4 4 4 3 3 2 2 2 2 2 2 3 4 3 3 3
5 1 3 1 2 3 3 2 0 1 1 1 1 2 2 4 6 7 7 6 6 5 3 4 4 4 4 5 5 4 4 4 3 2 2 2 2 1 1 2 3 4 3 3
3 3 0 3 3 3 1 2 2 1 1 2 1 2 2 3 3 4 5 5 5 7 6 5 6 5 5 5 5 5 4 4 3 3 3 3 3 3 3 3 3 3 3 3
1 1 2 2 1 3 1 2 3 2 2 1 1 2 4 3 3 5 6 6 6 6 6 6 6 6 7 6 5 5 5 4 3 4 4 4 3 2 0 0 1 3 3 3
1 0 2 1 1 3 2 2 3 2 2 1 1 1 6 1 4 7 8 8 7 7 7 8 8 8 6 6 5 5 5 4 3 3 4 4 3 2 1 1 2 3 3 3
1 0 1 1 1 2 4 5 4 4 3 1 2 2 6 4 7 6 6 7 8 8 7 7 6 5 5 5 5 5 5 4 3 4 4 4 4 4 3 2 2 2 2 2
3 2 1 1 3 2 4 5 3 3 2 3 2 2 7 6 6 7 7 7 7 7 7 7 7 7 6 6 6 6 6 4 4 4 3 4 4 5 4 3 2 2 1 1
1 3 2 1 3 3 2 5 5 3 3 3 1 4 7 4 3 4 5 5 6 6 7 8 9 8 8 7 7 6 6 4 4 4 4 3 4 3 2 3 2 2 1 1
4 3 2 1 1 5 4 2 4 4 1 1 3 5 7 1 2 1 3 4 6 7 7 8 8 7 8 8 7 7 7 5 5 5 4 4 4 3 3 3 2 2 1 1
6 2 2 1 3 3 3 6 4 3 2 2 3 3 4 3 2 1 2 4 5 5 6 6 7 7 7 7 6 6 7 6 5 5 5 4 4 4 3 3 3 2 2 2
4 3 1 1 2 3 3 3 4 3 3 3 2 6 5 6 5 5 5 5 5 6 6 6 6 6 6 6 6 6 6 5 5 5 4 4 4 4 3 3 3 3 2 2
3 5 1 4 3 2 4 5 6 4 2 2 2 7 5 4 4 4 4 4 4 5 5 5 5 5 5 6 6 6 6 6 5 5 5 4 4 4 4 3 3 3 3 2
4 5 2 4 4 1 1 3 4 4 4 3 3 7 4 1 0 2 3 3 3 3 4 4 5 6 6 6 6 6 6 6 5 5 5 4 4 4 4 4 3 3 3 3
5 4 5 6 5 3 3 3 4 5 4 4 6 7 6 3 2 1 2 2 3 4 4 5 6 6 6 6 6 6 6 6 6 5 5 5 5 5 4 4 3 3 4 4
4 3 3 4 3 3 4 4 6 6 7 7 6 6 8 6 5 4 3 3 3 4 4 5 6 6 6 6 6 6 6 6 6 6 6 6 5 4 4 3 3 3 3 4
3 3 1 2 2 2 4 5 6 7 5 6 4 6 6 3 2 2 3 4 5 5 6 6 6 6 7 7 7 7 7 6 6 6 6 5 4 4 4 4 4 3 3 3
2 4 2 2 3 2 4 6 7 5 6 7 8 8 3 2 4 6 6 6 6 6 6 7 7 7 8 8 8 8 7 6 7 7 6 5 5 5 5 4 4 4 4 3
6 4 3 1 1 4 7 3 4 5 5 6 5 4 5 5 4 4 5 7 6 6 6 6 6 6 6 6 6 6 6 7 7 7 6 6 6 5 5 5 5 4 3 3
5 6 3 2 3 5 6 2 3 3 4 4 5 3 2 2 2 2 3 5 7 7 6 6 6 6 5 6 6 6 6 6 7 7 7 6 6 6 6 6 5 4 4 3
3 4 5 3 3 5 6 3 2 2 4 3 5 5 3 4 2 5 4 4 4 3 3 4 4 4 4 4 6 7 6 6 7 7 7 6 7 7 7 6 5 3 4 3
3 2 4 4 4 7 6 3 2 3 7 4 5 5 6 6 6 4 2 2 3 2 3 3 4 4 4 4 6 7 6 6 6 5 5 5 6 6 6 5 4 4 4 3
6 5 5 4 3 8 3 3 5 7 3 2 3 4 5 4 2 1 2 2 3 3 3 4 4 3 3 4 6 6 5 5 4 5 5 5 5 4 5 5 4 4 5 4
6 7 6 8 7 5 3 5 4 3 3 3 3 3 4 3 2 2 2 2 2 3 3 4 5 4 3 4 5 6 4 4 5 5 5 4 4 4 4 5 5 4 3 3
3 2 3 3 6 5 4 3 3 2 3 3 3 3 4 4 3 3 2 2 2 2 3 3 5 5 3 3 3 4 3 5 6 5 4 4 5 4 4 3 4 4 3 3
4 3 2 4 5 4 4 3 2 2 1 1 2 3 5 5 4 3 3 2 2 2 3 4 4 4 3 3 3 3 4 5 6 5 4 4 4 5 4 3 2 3 3 4
4 5 6 6 5 4 5 4 2 1 1 2 3 2 2 4 5 4 4 3 3 4 3 4 4 3 3 3 3 3 4 5 6 5 4 3 3 4 4 4 3 4 3 4
Wind_Direction
34 64 134 208 190 170 151 145 157 268 275 125 190 215 223 196 182 194 203 201 200 214 219 167 156 151 142 134 134 136 130 129 123 105 94 80 54 21 24 30 39 51 70 81
44 338 243 177 136 123 124 122 91 333 24 145 189 256 234 198 202 200 199 204 206 202 183 167 160 157 161 162 160 150 146 149 148 130 119 113 107 69 39 20 34 37 59 75
158 256 156 121 107 107 100 163 188 193 32 46 55 325 265 239 206 207 206 208 204 196 191 185 174 174 170 176 175 165 160 154 145 126 101 80 60 42 31 22 22 16 40 64
227 287 106 114 147 143 215 212 172 155 114 320 108 279 274 237 222 214 211 207 208 203 194 191 183 180 185 190 176 160 155 148 143 137 132 129 126 123 143 18 31 28 38 58
279 86 112 149 220 158 183 110 110 117 120 42 25 232 280 208 230 233 221 211 207 199 192 193 191 186 187 181 168 156 146 145 144 143 145 131 120 124 99 65 62 45 33 42
254 283 165 194 96 131 125 76 64 56 68 339 239 191 276 230 221 225 218 211 201 193 190 192 185 171 172 169 160 150 149 154 150 147 146 146 144 135 118 96 82 53 33 32
354 346 346 119 86 49 84 87 45 14 16 267 263 215 255 247 223 212 212 208 197 185 182 180 177 175 175 172 165 155 156 161 159 155 159 162 157 151 151 150 138 114 67 37
133 302 278 185 164 162 151 132 148 182 222 280 297 248 261 264 253 218 200 190 179 180 186 187 185 182 180 177 171 164 166 173 170 170 173 166 158 154 158 157 152 152 155 149
171 250 299 236 167 137 133 141 152 132 168 282 283 288 303 318 16 76 147 164 182 187 190 191 185 184 183 179 178 173 173 180 181 181 170 165 162 161 162 158 149 153 163 144
154 188 306 325 76 44 134 142 106 111 140 278 300 284 261 271 265 223 192 195 199 189 186 187 186 187 185 181 175 173 177 183 181 176 174 172 174 173 166 153 161 165 158 125
139 145 323 25 176 178 108 107 109 116 148 159 279 278 239 227 219 212 217 210 199 192 188 189 186 183 175 166 166 171 175 173 172 173 173 166 170 166 159 167 180 170 157 150
136 126 202 256 257 189 162 165 147 148 202 177 194 270 282 244 220 205 215 214 199 189 185 184 176 166 165 170 174 175 176 177 180 173 168 172 165 158 166 183 188 168 162 163
131 116 88 345 340 355 184 174 159 132 128 162 188 267 312 357 224 204 200 201 191 178 171 171 170 174 178 180 180 180 179 182 175 164 164 166 166 169 183 190 185 172 164 159
115 120 161 193 221 207 218 203 171 145 162 200 223 254 291 290 267 249 212 194 181 180 175 173 180 185 183 182 181 180 182 178 170 164 166 175 183 184 188 186 179 177 168 163
106 145 207 233 239 213 219 211 194 194 193 195 228 233 253 245 230 219 199 182 166 180 185 186 187 189 184 182 182 180 180 178 171 167 175 189 185 171 167 170 173 168 164 171
87 144 156 283 273 239 258 244 208 213 206 215 235 256 246 226 184 195 199 190 191 199 200 197 192 190 190 190 188 183 184 179 168 171 184 184 169 164 169 174 166 156 157 156
133 129 127 260 308 0 268 236 209 209 205 189 211 231 217 202 192 199 206 205 207 207 203 199 198 198 198 196 189 188 186 172 168 176 180 177 172 173 178 171 161 165 170 160
145 130 138 175 82 241 249 253 212 219 227 211 218 217 202 208 207 202 199 203 214 210 207 204 198 199 198 191 185 179 168 167 172 176 179 180 174 175 171 165 173 178 165 164
156 142 134 147 200 271 289 266 190 198 254 212 206 218 204 153 81 298 216 203 212 210 205 203 196 190 184 184 176 163 165 169 172 181 186 184 177 172 169 176 183 178 164 170
102 125 130 150 186 234 250 273 263 145 270 233 191 199 183 133 140 254 235 208 218 213 197 183 171 159 169 180 164 158 166 171 187 192 188 179 174 174 179 184 180 168 163 174
114 114 154 175 215 256 254 278 95 161 244 250 197 189 174 183 203 219 200 191 186 173 164 150 144 154 174 162 151 157 165 188 195 177 166 167 174 178 177 170 162 156 152 144
167 163 178 161 203 253 248 154 184 224 257 226 196 180 180 196 186 148 148 147 132 121 126 134 137 146 144 146 150 157 181 193 165 152 153 159 163 166 159 153 151 146 145 142
193 188 183 187 212 242 232 218 240 234 230 224 195 184 167 158 150 130 117 110 115 124 135 139 142 133 124 140 151 162 187 159 139 137 143 147 142 142 143 147 146 140 145 147
250 165 160 237 260 265 264 255 274 257 230 217 177 159 150 146 142 125 120 107 106 110 127 130 129 128 135 144 148 163 154 138 132 136 141 139 136 130 126 133 143 146 154 160
219 170 178 248 277 305 298 281 292 311 300 147 132 143 152 144 139 140 139 130 129 118 117 122 129 139 147 137 133 125 126 131 131 133 133 135 136 139 130 121 129 150 162 169
208 183 183 222 227 209 258 283 293 273 243 173 142 119 125 150 152 142 138 136 131 127 119 117 118 125 127 123 120 118 127 135 135 133 137 140 137 137 133 131 102 64 87 104